Location: Newark
(37.3394°N, 6.0261°W)
Time: 18:20:51
(UTC+00:00)

Envisat - Pass Details

Date: 26 March 2019
Orbit: 764 x 766 km, 98.2° (Epoch: 24 April)

Event Time Altitude Azimuth Distance (km) Brightness Sun altitude
Rises 19:26:39 0° 180° (S) 3,217 6.1 -9.8°
Reaches altitude 10° 19:29:01 10° 186° (S) 2,295 5.4 -10.3°
Maximum altitude 19:33:54 49° 260° (W) 982 4.0 -11.2°
Drops below altitude 10° 19:38:50 10° 336° (NNW) 2,309 6.0 -12.2°
Sets 19:41:14 0° 342° (NNW) 3,239 6.7 -12.6°
